Weather observations for the past three days for
Anvik, Anvik Airport
Imperial (Metric)
Date Time (akdt) Wind (mph) Vis. (mi.) Weather Sky Cond. Temperature (ºF) Relative Humidity Wind Chill (°F) Heat Index (°F) Pressure Precipitation (in)
Air Dwpt 6 hour altimeter (in) sea level (mb) 1 hr 3 hr 6 hr
Max. Min.
06 11:56 W 9 10.00 Mostly Cloudy BKN022 33.1 21 61% 26 30.02 1027.0
06 10:56 W 6 10.00 Mostly Cloudy BKN018 28.9 19.9 69% 23 30.03 1027.3
06 09:56 W 6 10.00 Mostly Cloudy BKN020 30 21.9 30 19.9 72% 25 30.03 1026.9
06 08:56 W 7 10.00 Fair CLR 27 21.9 81% 20 30.02 1026.7
06 07:56 SW 3 10.00 Fair CLR 24.1 19.9 84% 30.01 1026.5
06 06:56 W 3 10.00 Fair CLR 21 19 92% 30 1026.2
06 05:56 W 5 10.00 Fair CLR 21 18 88% 15 29.99 1025.8
06 04:56 W 5 10.00 Fair CLR 21.9 19 89% 16 29.98 1025.4
06 03:56 W 5 10.00 Fair CLR 21.9 19 35.1 21.9 89% 16 29.97 1025.3
06 02:56 W 3 10.00 Fair CLR 24.1 19 81% 29.96 1024.7
06 01:56 N 5 10.00 Fair CLR 25 19.9 81% 20 29.95 1024.2
06 00:56 NW 5 10.00 Fair CLR 27 21 78% 22 29.93 1023.6
05 23:56 NW 6 10.00 Fair CLR 28 21 75% 22 29.91 1023.0
05 22:56 Vrbl 5 10.00 Fair CLR 32 21.9 66% 28 29.9 1022.3
05 21:56 N 8 10.00 Fair CLR 35.1 19 39 35.1 52% 29 29.89 1021.4
05 20:56 NW 9 10.00 Fair CLR 37 19.9 50% 31 29.87 1020.8
05 19:56 NW 8 10.00 Fair CLR 37.9 18 44% 33 29.86 1020.7
05 18:56 NW 9 10.00 Fair CLR 37.9 18 44% 32 29.85 1020.2
05 17:56 NW 10 G 17 10.00 Fair CLR 39 18 43% 33 29.83 1019.4
05 16:56 NW 15 G 21 10.00 Fair CLR 37.9 17.1 43% 30 29.83 1019.2
05 15:56 NW 13 G 17 10.00 Fair CLR 37.9 18 37.9 32 44% 31 29.82 1018.9
05 14:56 NW 14 G 20 10.00 Fair CLR 37 18 46% 29 29.81 1018.4
05 13:56 W 13 G 17 10.00 Fair CLR 36 17.1 46% 28 29.81 1018.2
05 12:56 NW 13 G 23 10.00 Fair CLR 35.1 18 50% 27 29.8 1018.0
05 11:56 NW 14 G 21 10.00 Fair CLR 34 18 52% 25 29.79 1017.6
05 10:56 NW 13 G 20 10.00 Fair CLR 33.1 17.1 52% 25 29.77 1017.0
05 09:56 NW 13 10.00 Fair CLR 32 19.9 32 27 61% 23 29.77 1016.6
05 08:56 W 12 10.00 Fair CLR 30.9 21.9 69% 22 29.75 1016.0
05 07:56 W 7 10.00 Fair CLR 28 23 81% 22 29.74 1015.7
05 06:56 NW 8 10.00 Fair CLR 28 23 81% 21 29.73 1015.1
05 05:56 NW 7 10.00 Overcast OVC085 28.9 24.1 82% 23 29.72 1014.8
05 04:56 W 7 10.00 Mostly Cloudy FEW050 BKN085 30 25 82% 24 29.71 1014.1
05 03:56 W 5 10.00 Mostly Cloudy BKN080 30 26.1 39 30 85% 26 29.7 1014.1
05 02:56 W 3 10.00 Fair CLR 32 26.1 79% 29.7 1013.9
05 01:56 Vrbl 7 10.00 A Few Clouds FEW075 35.1 26.1 70% 30 29.7 1013.8
05 00:56 Vrbl 6 10.00 Mostly Cloudy FEW060 BKN075 35.1 26.1 70% 31 29.7 1014.0
04 23:56 NW 6 10.00 Overcast BKN060 OVC080 36 27 70% 32 29.71 1014.3
04 22:56 NW 6 10.00 Overcast OVC070 37 27 67% 33 29.71 1014.7
04 21:56 NW 9 10.00 A Few Clouds FEW070 39 27 44.1 39 62% 33 29.71 1014.6
04 20:56 N 9 10.00 Fair CLR 41 27 57% 36 29.72 1015.0
04 19:56 N 8 10.00 A Few Clouds FEW044 43 28 56% 39 29.74 1015.6
04 18:56 NW 9 10.00 Fair CLR 44.1 28 53% 40 29.75 1016.2
04 17:56 N 9 G 17 10.00 Fair CLR 43 27 53% 38 29.77 1016.9
04 16:56 NE 8 10.00 Fair CLR 43 26.1 51% 39 29.79 1017.5
04 15:56 NE 9 G 16 10.00 Fair CLR 42.1 26.1 42.1 32 53% 37 29.82 1018.5
04 14:56 NE 9 10.00 Fair CLR 41 25 53% 36 29.85 1019.8
04 13:56 NE 14 10.00 Fair CLR 39.9 25 55% 33 29.88 1020.8
04 12:56 N 8 10.00 Fair CLR 39 26.1 60% 34 29.91 1021.6
04 11:56 N 6 10.00 Fair CLR 37 24.1 59% 33 29.94 1022.8
04 10:56 NE 6 10.00 Fair CLR 35.1 24.1 64% 31 29.95 1023.5
04 09:56 N 8 10.00 Fair CLR 32 23 35.1 23 69% 25 29.98 1024.6
04 08:56 NW 5 10.00 Fair CLR 28.9 24.1 82% 25 29.99 1025.4
04 07:56 NW 5 10.00 Fair CLR 26.1 24.1 92% 21 30 1025.8
04 06:56 NW 5 10.00 Fair CLR 23 21.9 96% 18 30.01 1026.5
04 05:56 NW 3 10.00 Fair CLR 24.1 21 88% 30.02 1026.8
04 04:56 NW 3 10.00 Fair CLR 27 24.1 89% 30.01 1026.4
04 03:56 NW 3 10.00 Fair CLR 30 24.1 37.9 30 79% 30.02 1026.6
04 02:56 N 5 10.00 Fair CLR 30.9 25 79% 27 30.03 1027.1
04 01:56 NE 7 10.00 Overcast OVC034 33.1 24.1 70% 28 30.04 1027.2
04 00:56 N 5 10.00 Fair CLR 35.1 24.1 64% 32 30.03 1026.8
03 23:56 N 3 10.00 Fair CLR 36 23 59% 30.04 1026.9
03 22:56 Calm 10.00 Fair CLR 37.9 24.1 57% 30.03 1026.9
03 21:56 Calm 10.00 Fair CLR 37.9 24.1 39.9 35.1 57% 30.04 1027.1
03 20:56 E 6 10.00 Fair CLR 39 25 57% 35 30.04 1027.2
03 19:56 Vrbl 3 10.00 Fair CLR 39.9 25 55% 30.05 1027.4
03 18:56 E 5 10.00 Fair CLR 39 25 57% 36 30.05 1027.6
03 17:56 Calm 10.00 Fair CLR 37.9 25 60% 30.06 1028.2
03 16:56 E 5 10.00 Fair CLR 36 25 64% 33 30.08 1028.7
03 15:56 E 3 10.00 Fair CLR 35.1 25 35.1 28.9 67% 30.09 1029.4
03 14:56 Vrbl 6 10.00 A Few Clouds FEW019 33.1 24.1 70% 28 30.09 1029.5
03 13:56 Vrbl 3 10.00 Overcast OVC019 32 24.1 73% 30.1 1029.9
03 12:56 N 5 10.00 Overcast OVC017 34 24.1 67% 30 30.11 1029.8
Date Time (akdt) Wind (mph) Vis. (mi.) Weather Sky Cond. Air Dwpt Max. Min. Relative Humidity Wind Chill (°F) Heat Index (°F) altimeter (in) sea level (mb) 1 hr 3 hr 6 hr
6 hour
Temperature (ºF) Pressure Precipitation (in)